User: anonymous   Login
Location: Dampvalley
(47.9094°N, 6.1967°E)
Time: 05:01:59
(UTC+00:00)
Language:

METEOR-M - Orbit

View from above orbital plane
View from above orbital plane
View from above satellite
View from above satellite

Ground track
Ground track

The orbit data is extracted from the following two-line orbital elements,

1 35865U 09049A   21128.46848586 -.00000004  00000-0  16978-4 0  9992
2 35865  98.4768 108.3076 0001962 356.8591   3.2575 14.22272296604112
Epoch (UTC): 08 May 2021 11:14:37
Eccentricity: 0.0001962
inclination: 98.4768°
perigee height: 816 km
apogee height: 819 km
right ascension of ascending node: 108.3076°
argument of perigee: 356.8591°
revolutions per day: 14.22272296
mean anomaly at epoch: 3.2575°
orbit number at epoch: 60411

The dashed part of the orbit path shows where the satellite is in the earth's shadow,  

DLR